Time,TemperatureF,DewpointF,PressureIn,WindDirection,WindDirectionDegrees,WindSpeedMPH,WindSpeedGustMPH,Humidity,HourlyPrecipIn,Conditions,Clouds,dailyrainin,SoftwareType,DateUTC
2013-08-03 00:01:00,66.0,57.5,29.94,West,270,3.0,4.0,74,0.00,,---,0.00,VWS V14.01,2013-08-03 04:01:00,
2013-08-03 00:02:00,66.0,57.5,29.94,SW,225,7.0,8.0,74,0.00,,---,0.00,VWS V14.01,2013-08-03 04:02:00,
2013-08-03 00:03:00,66.0,57.5,29.93,WSW,248,6.0,10.0,74,0.00,,---,0.00,VWS V14.01,2013-08-03 04:03:00,
2013-08-03 00:08:00,66.0,57.9,29.94,WSW,248,8.0,11.0,75,0.00,,---,0.00,VWS V14.01,2013-08-03 04:08:00,
2013-08-03 00:13:00,65.0,56.9,29.93,WSW,248,8.0,11.0,75,0.00,,---,0.00,VWS V14.01,2013-08-03 04:13:00,
2013-08-03 00:18:00,65.0,57.3,29.93,West,270,6.0,11.0,76,0.00,,---,0.00,VWS V14.01,2013-08-03 04:18:00,
2013-08-03 00:23:00,65.0,57.6,29.93,SW,225,8.0,13.0,77,0.00,,---,0.00,VWS V14.01,2013-08-03 04:23:00,
2013-08-03 00:28:00,65.0,57.6,29.93,WSW,248,6.0,13.0,77,0.00,,---,0.00,VWS V14.01,2013-08-03 04:28:00,
2013-08-03 00:33:00,65.0,58.0,29.93,SW,225,7.0,13.0,78,0.00,,---,0.00,VWS V14.01,2013-08-03 04:33:00,
2013-08-03 00:38:00,65.0,58.0,29.93,South,180,6.0,13.0,78,0.00,,---,0.00,VWS V14.01,2013-08-03 04:38:00,
2013-08-03 00:43:00,65.0,58.0,29.93,SW,225,6.0,12.0,78,0.00,,---,0.00,VWS V14.01,2013-08-03 04:43:00,
2013-08-03 00:48:00,65.0,58.3,29.93,SW,225,8.0,14.0,79,0.00,,---,0.00,VWS V14.01,2013-08-03 04:48:00,
2013-08-03 00:54:00,65.0,58.7,29.94,West,270,11.0,14.0,80,0.00,,---,0.00,VWS V14.01,2013-08-03 04:54:00,
2013-08-03 00:59:00,65.0,59.0,29.93,SW,225,6.0,14.0,81,0.00,,---,0.00,VWS V14.01,2013-08-03 04:59:00,
2013-08-03 01:04:00,65.0,59.0,29.93,SW,225,6.0,10.0,81,0.00,,---,0.00,VWS V14.01,2013-08-03 05:04:00,
2013-08-03 01:09:00,65.0,59.4,29.93,WSW,248,7.0,10.0,82,0.00,,---,0.00,VWS V14.01,2013-08-03 05:09:00,
2013-08-03 01:14:00,64.0,58.4,29.93,West,270,8.0,11.0,82,0.00,,---,0.00,VWS V14.01,2013-08-03 05:14:00,
2013-08-03 01:19:00,65.0,59.4,29.94,West,270,7.0,11.0,82,0.00,,---,0.00,VWS V14.01,2013-08-03 05:19:00,
2013-08-03 01:24:00,65.0,59.4,29.93,WSW,248,6.0,8.0,82,0.00,,---,0.00,VWS V14.01,2013-08-03 05:24:00,
2013-08-03 01:29:00,65.0,59.7,29.93,WSW,248,8.0,11.0,83,0.00,,---,0.00,VWS V14.01,2013-08-03 05:29:00,
2013-08-03 01:34:00,65.0,59.7,29.93,WSW,248,3.0,11.0,83,0.00,,---,0.00,VWS V14.01,2013-08-03 05:34:00,
2013-08-03 01:39:00,65.0,59.7,29.93,SW,225,5.0,11.0,83,0.00,,---,0.00,VWS V14.01,2013-08-03 05:39:00,
2013-08-03 01:45:00,65.0,60.0,29.93,SW,225,5.0,10.0,84,0.00,,---,0.00,VWS V14.01,2013-08-03 05:45:00,
2013-08-03 01:50:00,65.0,60.0,29.93,WSW,248,6.0,10.0,84,0.00,,---,0.00,VWS V14.01,2013-08-03 05:50:00,
2013-08-03 01:55:00,65.0,60.0,29.93,WNW,292,3.0,10.0,84,0.00,,---,0.00,VWS V14.01,2013-08-03 05:55:00,
2013-08-03 02:00:00,65.0,60.4,29.93,West,270,4.0,10.0,85,0.00,,---,0.00,VWS V14.01,2013-08-03 06:00:00,
2013-08-03 02:05:00,65.0,60.4,29.94,West,270,3.0,9.0,85,0.00,,---,0.00,VWS V14.01,2013-08-03 06:05:00,
2013-08-03 02:10:00,65.0,60.4,29.93,West,270,6.0,9.0,85,0.00,,---,0.00,VWS V14.01,2013-08-03 06:10:00,
2013-08-03 02:15:00,65.0,60.7,29.93,WSW,248,5.0,9.0,86,0.00,,---,0.00,VWS V14.01,2013-08-03 06:15:00,
2013-08-03 02:20:00,65.0,61.0,29.93,WSW,248,8.0,11.0,87,0.00,,---,0.00,VWS V14.01,2013-08-03 06:20:00,
2013-08-03 02:25:00,64.0,60.4,29.94,WNW,292,6.0,12.0,88,0.00,,---,0.00,VWS V14.01,2013-08-03 06:25:00,
2013-08-03 02:30:00,64.0,60.7,29.94,West,270,11.0,12.0,89,0.00,,---,0.00,VWS V14.01,2013-08-03 06:30:00,
2013-08-03 02:35:00,64.0,61.0,29.94,West,270,5.0,12.0,90,0.00,,---,0.00,VWS V14.01,2013-08-03 06:35:00,
2013-08-03 02:40:00,64.0,61.3,29.94,WSW,248,10.0,12.0,91,0.01,,---,0.01,VWS V14.01,2013-08-03 06:40:00,
2013-08-03 02:45:00,64.0,61.3,29.94,WSW,248,7.0,11.0,91,0.01,,---,0.01,VWS V14.01,2013-08-03 06:45:00,
2013-08-03 02:50:00,64.0,61.3,29.94,SSW,202,4.0,11.0,91,0.01,,---,0.01,VWS V14.01,2013-08-03 06:50:00,
2013-08-03 02:55:00,64.0,61.3,29.94,WSW,248,6.0,11.0,91,0.01,,---,0.01,VWS V14.01,2013-08-03 06:55:00,
2013-08-03 03:00:00,64.0,61.6,29.94,WSW,248,5.0,11.0,92,0.01,,---,0.01,VWS V14.01,2013-08-03 07:00:00,
2013-08-03 03:05:00,64.0,61.6,29.94,WSW,248,5.0,11.0,92,0.01,,---,0.01,VWS V14.01,2013-08-03 07:05:00,
2013-08-03 03:11:00,64.0,61.6,29.94,WSW,248,3.0,11.0,92,0.01,,---,0.01,VWS V14.01,2013-08-03 07:11:00,
2013-08-03 03:16:00,64.0,61.6,29.93,WSW,248,3.0,11.0,92,0.01,,---,0.01,VWS V14.01,2013-08-03 07:16:00,
2013-08-03 03:21:00,63.0,60.6,29.93,WSW,248,3.0,3.0,92,0.01,,---,0.01,VWS V14.01,2013-08-03 07:21:00,
2013-08-03 03:26:00,63.0,60.6,29.93,West,270,5.0,5.0,92,0.01,,---,0.01,VWS V14.01,2013-08-03 07:26:00,
2013-08-03 03:31:00,64.0,61.6,29.93,NW,315,1.0,5.0,92,0.01,,---,0.01,VWS V14.01,2013-08-03 07:31:00,
2013-08-03 03:37:00,63.0,60.6,29.93,WNW,292,2.0,5.0,92,0.01,,---,0.01,VWS V14.01,2013-08-03 07:37:00,
2013-08-03 03:42:00,63.0,60.6,29.93,WSW,248,2.0,2.0,92,0.00,,---,0.01,VWS V14.01,2013-08-03 07:42:00,
2013-08-03 03:47:00,63.0,61.0,29.93,WSW,248,3.0,3.0,93,0.00,,---,0.01,VWS V14.01,2013-08-03 07:47:00,
2013-08-03 03:52:00,63.0,61.0,29.94,West,270,3.0,5.0,93,0.00,,---,0.01,VWS V14.01,2013-08-03 07:52:00,
2013-08-03 03:57:00,63.0,61.0,29.94,WSW,248,3.0,6.0,93,0.00,,---,0.01,VWS V14.01,2013-08-03 07:57:00,
2013-08-03 04:02:00,64.0,61.9,29.93,SW,225,3.0,4.0,93,0.00,,---,0.01,VWS V14.01,2013-08-03 08:02:00,
2013-08-03 04:07:00,63.0,61.0,29.93,SW,225,5.0,5.0,93,0.00,,---,0.01,VWS V14.01,2013-08-03 08:07:00,
2013-08-03 04:12:00,63.0,61.0,29.94,WSW,248,5.0,6.0,93,0.00,,---,0.01,VWS V14.01,2013-08-03 08:12:00,
2013-08-03 04:17:00,63.0,61.2,29.94,WSW,248,5.0,7.0,94,0.00,,---,0.01,VWS V14.01,2013-08-03 08:17:00,
2013-08-03 04:22:00,63.0,61.2,29.94,WNW,292,5.0,6.0,94,0.00,,---,0.01,VWS V14.01,2013-08-03 08:22:00,
2013-08-03 04:27:00,64.0,62.2,29.94,West,270,6.0,8.0,94,0.00,,---,0.01,VWS V14.01,2013-08-03 08:27:00,
2013-08-03 04:32:00,64.0,62.2,29.94,West,270,6.0,9.0,94,0.00,,---,0.01,VWS V14.01,2013-08-03 08:32:00,
2013-08-03 04:37:00,64.0,62.2,29.95,WNW,292,7.0,12.0,94,0.00,,---,0.01,VWS V14.01,2013-08-03 08:37:00,
2013-08-03 04:43:00,64.0,62.2,29.95,West,270,6.0,8.0,94,0.00,,---,0.01,VWS V14.01,2013-08-03 08:43:00,
2013-08-03 04:48:00,64.0,61.9,29.95,NNW,338,6.0,15.0,93,0.00,,---,0.01,VWS V14.01,2013-08-03 08:48:00,
2013-08-03 04:53:00,64.0,61.6,29.96,NW,315,3.0,15.0,92,0.00,,---,0.01,VWS V14.01,2013-08-03 08:53:00,
2013-08-03 04:58:00,63.0,60.0,29.96,WNW,292,6.0,15.0,90,0.00,,---,0.01,VWS V14.01,2013-08-03 08:58:00,
2013-08-03 05:03:00,63.0,59.1,29.96,WNW,292,6.0,10.0,87,0.00,,---,0.01,VWS V14.01,2013-08-03 09:03:00,
2013-08-03 05:08:00,63.0,59.1,29.96,WNW,292,5.0,11.0,87,0.00,,---,0.01,VWS V14.01,2013-08-03 09:08:00,
2013-08-03 05:13:00,63.0,58.4,29.96,West,270,5.0,15.0,85,0.00,,---,0.01,VWS V14.01,2013-08-03 09:13:00,
2013-08-03 05:18:00,63.0,58.4,29.95,NNW,338,1.0,15.0,85,0.00,,---,0.01,VWS V14.01,2013-08-03 09:18:00,
2013-08-03 05:23:00,63.0,58.8,29.96,WNW,292,3.0,8.0,86,0.00,,---,0.01,VWS V14.01,2013-08-03 09:23:00,
2013-08-03 05:28:00,63.0,58.8,29.96,WNW,292,4.0,8.0,86,0.00,,---,0.01,VWS V14.01,2013-08-03 09:28:00,
2013-08-03 05:33:00,63.0,58.8,29.96,NW,315,1.0,8.0,86,0.00,,---,0.01,VWS V14.01,2013-08-03 09:33:00,
2013-08-03 05:38:00,63.0,59.1,29.96,West,270,1.0,8.0,87,0.00,,---,0.01,VWS V14.01,2013-08-03 09:38:00,
2013-08-03 05:43:00,63.0,59.1,29.97,West,270,3.0,5.0,87,0.00,,---,0.01,VWS V14.01,2013-08-03 09:43:00,
2013-08-03 05:48:00,63.0,59.4,29.97,WNW,292,2.0,7.0,88,0.00,,---,0.01,VWS V14.01,2013-08-03 09:48:00,
2013-08-03 05:53:00,63.0,59.4,29.97,WNW,292,5.0,7.0,88,0.00,,---,0.01,VWS V14.01,2013-08-03 09:53:00,
2013-08-03 05:58:00,63.0,59.4,29.97,West,270,7.0,8.0,88,0.00,,---,0.01,VWS V14.01,2013-08-03 09:58:00,
2013-08-03 06:03:00,62.0,58.4,29.97,West,270,6.0,9.0,88,0.00,,---,0.01,VWS V14.01,2013-08-03 10:03:00,
2013-08-03 06:09:00,62.0,58.4,29.97,WNW,292,5.0,9.0,88,0.00,,---,0.01,VWS V14.01,2013-08-03 10:09:00,
2013-08-03 06:14:00,62.0,58.7,29.98,West,270,5.0,9.0,89,0.00,,---,0.01,VWS V14.01,2013-08-03 10:14:00,
2013-08-03 06:19:00,62.0,58.7,29.97,West,270,4.0,9.0,89,0.00,,---,0.01,VWS V14.01,2013-08-03 10:19:00,
2013-08-03 06:24:00,62.0,58.7,29.98,West,270,3.0,5.0,89,0.00,,---,0.01,VWS V14.01,2013-08-03 10:24:00,
2013-08-03 06:29:00,61.0,58.0,29.98,West,270,3.0,5.0,90,0.00,,---,0.01,VWS V14.01,2013-08-03 10:29:00,
2013-08-03 06:34:00,61.0,58.0,29.98,West,270,5.0,6.0,90,0.00,,---,0.01,VWS V14.01,2013-08-03 10:34:00,
2013-08-03 06:39:00,61.0,58.0,29.98,WSW,248,4.0,6.0,90,0.00,,---,0.01,VWS V14.01,2013-08-03 10:39:00,
2013-08-03 06:44:00,61.0,58.4,29.98,West,270,5.0,6.0,91,0.00,,---,0.01,VWS V14.01,2013-08-03 10:44:00,
2013-08-03 06:49:00,61.0,58.4,29.98,West,270,3.0,8.0,91,0.00,,---,0.01,VWS V14.01,2013-08-03 10:49:00,
2013-08-03 06:54:00,61.0,58.4,29.98,West,270,3.0,8.0,91,0.00,,---,0.01,VWS V14.01,2013-08-03 10:54:00,
2013-08-03 07:00:00,62.0,59.3,29.98,NW,315,3.0,8.0,91,0.00,,---,0.01,VWS V14.01,2013-08-03 11:00:00,
2013-08-03 07:05:00,62.0,59.3,29.98,WNW,292,3.0,6.0,91,0.00,,---,0.01,VWS V14.01,2013-08-03 11:05:00,
2013-08-03 07:10:00,62.0,59.3,29.98,WSW,248,4.0,6.0,91,0.00,,---,0.01,VWS V14.01,2013-08-03 11:10:00,
2013-08-03 07:15:00,62.0,59.3,29.98,NW,315,3.0,6.0,91,0.00,,---,0.01,VWS V14.01,2013-08-03 11:15:00,
2013-08-03 07:20:00,62.0,59.3,29.98,West,270,3.0,6.0,91,0.00,,---,0.01,VWS V14.01,2013-08-03 11:20:00,
2013-08-03 07:25:00,62.0,59.3,29.98,WSW,248,3.0,5.0,91,0.00,,---,0.01,VWS V14.01,2013-08-03 11:25:00,
2013-08-03 07:30:00,62.0,59.3,29.98,WSW,248,3.0,5.0,91,0.00,,---,0.01,VWS V14.01,2013-08-03 11:30:00,
2013-08-03 07:35:00,62.0,59.0,29.98,WNW,292,3.0,5.0,90,0.00,,---,0.01,VWS V14.01,2013-08-03 11:35:00,
2013-08-03 07:41:00,62.0,59.3,29.98,WNW,292,1.0,3.0,91,0.00,,---,0.01,VWS V14.01,2013-08-03 11:41:00,
2013-08-03 07:46:00,62.0,59.3,29.99,WNW,292,2.0,5.0,91,0.00,,---,0.01,VWS V14.01,2013-08-03 11:46:00,
2013-08-03 07:51:00,62.0,59.3,29.99,NW,315,0.0,5.0,91,0.00,,---,0.01,VWS V14.01,2013-08-03 11:51:00,
2013-08-03 07:56:00,63.0,60.3,29.99,WNW,292,1.0,5.0,91,0.00,,---,0.01,VWS V14.01,2013-08-03 11:56:00,
2013-08-03 08:01:00,63.0,59.7,29.99,NNW,338,2.0,5.0,89,0.00,,---,0.01,VWS V14.01,2013-08-03 12:01:00,
2013-08-03 08:06:00,63.0,59.7,29.99,NNW,338,3.0,6.0,89,0.00,,---,0.01,VWS V14.01,2013-08-03 12:06:00,
2013-08-03 08:11:00,64.0,60.7,29.99,North,0,3.0,6.0,89,0.00,,---,0.01,VWS V14.01,2013-08-03 12:11:00,
2013-08-03 08:17:00,64.0,60.4,29.99,North,0,1.0,6.0,88,0.00,,---,0.01,VWS V14.01,2013-08-03 12:17:00,
2013-08-03 08:22:00,64.0,60.4,29.99,North,0,4.0,5.0,88,0.00,,---,0.01,VWS V14.01,2013-08-03 12:22:00,
2013-08-03 08:27:00,64.0,60.1,29.99,NNW,338,3.0,5.0,87,0.00,,---,0.01,VWS V14.01,2013-08-03 12:27:00,
2013-08-03 08:32:00,64.0,60.1,29.99,North,0,2.0,5.0,87,0.00,,---,0.01,VWS V14.01,2013-08-03 12:32:00,
2013-08-03 08:37:00,64.0,60.1,30.00,NNW,338,5.0,6.0,87,0.00,,---,0.01,VWS V14.01,2013-08-03 12:37:00,
2013-08-03 08:42:00,65.0,60.4,29.99,NNW,338,5.0,6.0,85,0.00,,---,0.01,VWS V14.01,2013-08-03 12:42:00,
2013-08-03 08:47:00,65.0,59.7,30.00,NNW,338,2.0,6.0,83,0.00,,---,0.01,VWS V14.01,2013-08-03 12:47:00,
2013-08-03 08:52:00,65.0,59.4,30.00,NNW,338,1.0,6.0,82,0.00,,---,0.01,VWS V14.01,2013-08-03 12:52:00,
2013-08-03 08:57:00,65.0,58.7,30.00,WNW,292,7.0,7.0,80,0.00,,---,0.01,VWS V14.01,2013-08-03 12:57:00,
2013-08-03 09:02:00,65.0,59.0,30.00,WNW,292,0.0,5.0,81,0.00,,---,0.01,VWS V14.01,2013-08-03 13:02:00,
2013-08-03 09:07:00,65.0,58.0,30.00,NNW,338,5.0,5.0,78,0.00,,---,0.01,VWS V14.01,2013-08-03 13:07:00,
2013-08-03 09:12:00,65.0,58.0,30.00,NW,315,1.0,5.0,78,0.00,,---,0.01,VWS V14.01,2013-08-03 13:12:00,
2013-08-03 09:17:00,66.0,58.2,30.00,West,270,6.0,8.0,76,0.00,,---,0.01,VWS V14.01,2013-08-03 13:17:00,
2013-08-03 09:22:00,66.0,58.2,30.00,WNW,292,5.0,5.0,76,0.00,,---,0.01,VWS V14.01,2013-08-03 13:22:00,
2013-08-03 09:27:00,66.0,57.5,30.00,WNW,292,3.0,6.0,74,0.00,,---,0.01,VWS V14.01,2013-08-03 13:27:00,
2013-08-03 09:32:00,66.0,57.1,30.00,West,270,8.0,10.0,73,0.00,,---,0.01,VWS V14.01,2013-08-03 13:32:00,
2013-08-03 09:37:00,67.0,57.7,30.00,WNW,292,4.0,10.0,72,0.00,,---,0.01,VWS V14.01,2013-08-03 13:37:00,
2013-08-03 09:42:00,67.0,57.7,30.00,NNW,338,1.0,5.0,72,0.00,,---,0.01,VWS V14.01,2013-08-03 13:42:00,
2013-08-03 09:48:00,67.0,57.3,29.99,NW,315,1.0,6.0,71,0.00,,---,0.01,VWS V14.01,2013-08-03 13:48:00,
2013-08-03 09:53:00,68.0,58.3,30.00,West,270,6.0,9.0,71,0.00,,---,0.01,VWS V14.01,2013-08-03 13:53:00,
2013-08-03 09:58:00,68.0,57.1,30.00,NW,315,1.0,9.0,68,0.00,,---,0.01,VWS V14.01,2013-08-03 13:58:00,
2013-08-03 10:03:00,68.0,56.2,30.00,West,270,2.0,8.0,66,0.00,,---,0.01,VWS V14.01,2013-08-03 14:03:00,
2013-08-03 10:08:00,69.0,56.8,30.00,NW,315,3.0,8.0,65,0.00,,---,0.01,VWS V14.01,2013-08-03 14:08:00,
2013-08-03 10:13:00,69.0,56.3,30.00,WNW,292,3.0,8.0,64,0.00,,---,0.01,VWS V14.01,2013-08-03 14:13:00,
2013-08-03 10:18:00,70.0,56.8,30.00,West,270,5.0,10.0,63,0.00,,---,0.01,VWS V14.01,2013-08-03 14:18:00,
2013-08-03 10:23:00,70.0,56.4,30.00,West,270,2.0,12.0,62,0.00,,---,0.01,VWS V14.01,2013-08-03 14:23:00,
2013-08-03 10:28:00,70.0,56.8,30.00,NW,315,5.0,12.0,63,0.00,,---,0.01,VWS V14.01,2013-08-03 14:28:00,
2013-08-03 10:33:00,70.0,56.0,30.00,WNW,292,4.0,12.0,61,0.00,,---,0.01,VWS V14.01,2013-08-03 14:33:00,
2013-08-03 10:38:00,71.0,55.5,30.00,NW,315,6.0,12.0,58,0.00,,---,0.01,VWS V14.01,2013-08-03 14:38:00,
2013-08-03 10:43:00,70.0,55.0,30.00,West,270,4.0,9.0,59,0.00,,---,0.01,VWS V14.01,2013-08-03 14:43:00,
2013-08-03 10:49:00,70.0,55.0,30.00,North,0,3.0,9.0,59,0.00,,---,0.01,VWS V14.01,2013-08-03 14:49:00,
2013-08-03 10:54:00,70.0,55.5,30.00,WNW,292,3.0,10.0,60,0.00,,---,0.01,VWS V14.01,2013-08-03 14:54:00,
2013-08-03 10:59:00,71.0,56.0,30.00,NNW,338,1.0,10.0,59,0.00,,---,0.01,VWS V14.01,2013-08-03 14:59:00,
2013-08-03 11:04:00,71.0,55.5,30.00,NW,315,4.0,9.0,58,0.00,,---,0.01,VWS V14.01,2013-08-03 15:04:00,
2013-08-03 11:09:00,71.0,56.0,30.00,North,0,3.0,11.0,59,0.00,,---,0.01,VWS V14.01,2013-08-03 15:09:00,
2013-08-03 11:14:00,71.0,56.4,30.00,NW,315,6.0,11.0,60,0.00,,---,0.01,VWS V14.01,2013-08-03 15:14:00,
2013-08-03 11:19:00,71.0,57.3,30.00,NW,315,6.0,11.0,62,0.00,,---,0.01,VWS V14.01,2013-08-03 15:19:00,
2013-08-03 11:24:00,71.0,56.9,30.00,WNW,292,6.0,12.0,61,0.00,,---,0.01,VWS V14.01,2013-08-03 15:24:00,
2013-08-03 11:29:00,70.0,56.0,30.00,NNW,338,3.0,13.0,61,0.00,,---,0.01,VWS V14.01,2013-08-03 15:29:00,
2013-08-03 11:34:00,71.0,57.3,30.00,NNW,338,2.0,13.0,62,0.00,,---,0.01,VWS V14.01,2013-08-03 15:34:00,
2013-08-03 11:39:00,71.0,56.4,30.00,NNW,338,1.0,13.0,60,0.00,,---,0.01,VWS V14.01,2013-08-03 15:39:00,
2013-08-03 11:45:00,71.0,56.0,30.00,West,270,8.0,13.0,59,0.00,,---,0.01,VWS V14.01,2013-08-03 15:45:00,
2013-08-03 11:50:00,71.0,56.0,30.00,NNW,338,6.0,13.0,59,0.00,,---,0.01,VWS V14.01,2013-08-03 15:50:00,
2013-08-03 11:55:00,71.0,56.4,30.00,NW,315,5.0,13.0,60,0.00,,---,0.01,VWS V14.01,2013-08-03 15:55:00,
2013-08-03 12:00:00,71.0,55.5,30.00,WNW,292,5.0,13.0,58,0.00,,---,0.01,VWS V14.01,2013-08-03 16:00:00,
2013-08-03 12:05:00,72.0,56.4,30.01,NNW,338,2.0,10.0,58,0.00,,---,0.01,VWS V14.01,2013-08-03 16:05:00,
2013-08-03 12:10:00,72.0,56.4,30.01,NNW,338,8.0,10.0,58,0.00,,---,0.01,VWS V14.01,2013-08-03 16:10:00,
2013-08-03 12:16:00,72.0,55.5,30.01,NNW,338,7.0,12.0,56,0.00,,---,0.01,VWS V14.01,2013-08-03 16:16:00,
2013-08-03 12:21:00,71.0,54.0,30.01,NW,315,10.0,10.0,55,0.00,,---,0.01,VWS V14.01,2013-08-03 16:21:00,
2013-08-03 12:25:00,72.0,55.0,30.01,NNW,338,7.0,10.0,55,0.00,,---,0.01,VWS V14.01,2013-08-03 16:25:00,
2013-08-03 12:31:00,72.0,55.5,30.01,NNW,338,6.0,10.0,56,0.00,,---,0.01,VWS V14.01,2013-08-03 16:31:00,
2013-08-03 12:36:00,72.0,54.5,30.01,North,0,5.0,10.0,54,0.00,,---,0.01,VWS V14.01,2013-08-03 16:36:00,
2013-08-03 12:41:00,72.0,54.5,30.01,NNW,338,4.0,7.0,54,0.00,,---,0.01,VWS V14.01,2013-08-03 16:41:00,
2013-08-03 12:46:00,72.0,54.5,30.01,NNW,338,8.0,10.0,54,0.00,,---,0.01,VWS V14.01,2013-08-03 16:46:00,
2013-08-03 12:51:00,72.0,53.4,30.01,NW,315,2.0,10.0,52,0.00,,---,0.01,VWS V14.01,2013-08-03 16:51:00,
2013-08-03 12:56:00,72.0,52.9,30.01,NNW,338,8.0,16.0,51,0.00,,---,0.01,VWS V14.01,2013-08-03 16:56:00,
2013-08-03 13:02:00,72.0,53.4,30.01,NNW,338,5.0,11.0,52,0.00,,---,0.01,VWS V14.01,2013-08-03 17:02:00,
2013-08-03 13:07:00,72.0,52.9,30.01,North,0,3.0,14.0,51,0.00,,---,0.01,VWS V14.01,2013-08-03 17:07:00,
2013-08-03 13:12:00,72.0,52.4,30.01,NNE,22,7.0,14.0,50,0.00,,---,0.01,VWS V14.01,2013-08-03 17:12:00,
2013-08-03 13:17:00,72.0,51.8,30.01,NW,315,2.0,14.0,49,0.00,,---,0.01,VWS V14.01,2013-08-03 17:17:00,
2013-08-03 13:22:00,73.0,52.7,30.01,NNW,338,8.0,12.0,49,0.00,,---,0.01,VWS V14.01,2013-08-03 17:22:00,
2013-08-03 13:27:00,72.0,51.8,30.01,WNW,292,6.0,12.0,49,0.00,,---,0.01,VWS V14.01,2013-08-03 17:27:00,
2013-08-03 13:33:00,72.0,51.8,30.01,NNW,338,5.0,13.0,49,0.00,,---,0.01,VWS V14.01,2013-08-03 17:33:00,
2013-08-03 13:38:00,72.0,51.8,30.01,NNW,338,10.0,13.0,49,0.00,,---,0.01,VWS V14.01,2013-08-03 17:38:00,
2013-08-03 13:43:00,72.0,51.3,30.01,NNW,338,11.0,13.0,48,0.00,,---,0.01,VWS V14.01,2013-08-03 17:43:00,
2013-08-03 13:48:00,73.0,53.8,30.01,North,0,2.0,13.0,51,0.00,,---,0.01,VWS V14.01,2013-08-03 17:48:00,
2013-08-03 13:53:00,73.0,53.8,30.01,WNW,292,2.0,13.0,51,0.00,,---,0.01,VWS V14.01,2013-08-03 17:53:00,
2013-08-03 13:58:00,73.0,52.7,30.01,NNW,338,8.0,13.0,49,0.00,,---,0.01,VWS V14.01,2013-08-03 17:58:00,
2013-08-03 14:03:00,73.0,51.6,30.01,NNW,338,10.0,13.0,47,0.00,,---,0.01,VWS V14.01,2013-08-03 18:03:00,
2013-08-03 14:08:00,73.0,52.7,30.01,WSW,248,5.0,13.0,49,0.00,,---,0.01,VWS V14.01,2013-08-03 18:08:00,
2013-08-03 14:13:00,73.0,51.6,30.01,NW,315,6.0,13.0,47,0.00,,---,0.01,VWS V14.01,2013-08-03 18:13:00,
2013-08-03 14:18:00,74.0,51.9,30.01,West,270,3.0,13.0,46,0.00,,---,0.01,VWS V14.01,2013-08-03 18:18:00,
2013-08-03 14:23:00,73.0,51.0,30.01,West,270,5.0,11.0,46,0.00,,---,0.01,VWS V14.01,2013-08-03 18:23:00,
2013-08-03 14:28:00,73.0,50.4,30.01,NNW,338,6.0,14.0,45,0.00,,---,0.01,VWS V14.01,2013-08-03 18:28:00,
2013-08-03 14:33:00,73.0,50.4,30.01,North,0,5.0,14.0,45,0.00,,---,0.01,VWS V14.01,2013-08-03 18:33:00,
2013-08-03 14:38:00,73.0,49.8,30.01,NW,315,4.0,14.0,44,0.00,,---,0.01,VWS V14.01,2013-08-03 18:38:00,
2013-08-03 14:44:00,73.0,49.2,30.01,WNW,292,7.0,14.0,43,0.00,,---,0.01,VWS V14.01,2013-08-03 18:44:00,
2013-08-03 14:49:00,73.0,52.2,30.01,West,270,6.0,14.0,48,0.00,,---,0.01,VWS V14.01,2013-08-03 18:49:00,
2013-08-03 14:54:00,74.0,51.9,30.01,NNW,338,5.0,14.0,46,0.00,,---,0.01,VWS V14.01,2013-08-03 18:54:00,
2013-08-03 14:59:00,73.0,49.2,30.01,NW,315,6.0,14.0,43,0.00,,---,0.01,VWS V14.01,2013-08-03 18:59:00,
2013-08-03 15:04:00,73.0,51.0,30.01,NNW,338,2.0,10.0,46,0.00,,---,0.01,VWS V14.01,2013-08-03 19:04:00,
2013-08-03 15:09:00,73.0,49.2,30.01,North,0,6.0,14.0,43,0.00,,---,0.01,VWS V14.01,2013-08-03 19:09:00,
2013-08-03 15:14:00,73.0,50.4,30.01,NNW,338,5.0,14.0,45,0.00,,---,0.01,VWS V14.01,2013-08-03 19:14:00,
2013-08-03 15:19:00,73.0,50.4,30.01,NNW,338,10.0,14.0,45,0.00,,---,0.01,VWS V14.01,2013-08-03 19:19:00,
2013-08-03 15:24:00,72.0,50.1,30.01,NNW,338,4.0,11.0,46,0.00,,---,0.01,VWS V14.01,2013-08-03 19:24:00,
2013-08-03 15:29:00,73.0,52.2,30.01,West,270,5.0,11.0,48,0.00,,---,0.01,VWS V14.01,2013-08-03 19:29:00,
2013-08-03 15:35:00,72.0,51.3,30.01,NNW,338,5.0,12.0,48,0.00,,---,0.01,VWS V14.01,2013-08-03 19:35:00,
2013-08-03 15:40:00,72.0,50.7,30.02,NW,315,4.0,13.0,47,0.00,,---,0.01,VWS V14.01,2013-08-03 19:40:00,
2013-08-03 15:45:00,72.0,51.8,30.01,NNW,338,8.0,13.0,49,0.00,,---,0.01,VWS V14.01,2013-08-03 19:45:00,
2013-08-03 15:50:00,72.0,50.7,30.01,NNW,338,5.0,14.0,47,0.00,,---,0.01,VWS V14.01,2013-08-03 19:50:00,
2013-08-03 15:55:00,72.0,51.8,30.01,NW,315,2.0,19.0,49,0.00,,---,0.01,VWS V14.01,2013-08-03 19:55:00,
2013-08-03 16:00:00,72.0,50.1,30.01,NNW,338,5.0,19.0,46,0.00,,---,0.01,VWS V14.01,2013-08-03 20:00:00,
2013-08-03 16:05:00,72.0,51.8,30.01,NNW,338,10.0,13.0,49,0.00,,---,0.01,VWS V14.01,2013-08-03 20:05:00,
2013-08-03 16:11:00,71.0,50.9,30.01,North,0,4.0,13.0,49,0.00,,---,0.01,VWS V14.01,2013-08-03 20:11:00,
2013-08-03 16:16:00,72.0,52.4,30.01,NNW,338,10.0,13.0,50,0.00,,---,0.01,VWS V14.01,2013-08-03 20:16:00,
2013-08-03 16:20:00,72.0,52.9,30.01,North,0,4.0,8.0,51,0.00,,---,0.01,VWS V14.01,2013-08-03 20:20:00,
2013-08-03 16:26:00,73.0,52.7,30.01,NW,315,8.0,10.0,49,0.00,,---,0.01,VWS V14.01,2013-08-03 20:26:00,
2013-08-03 16:31:00,73.0,52.7,30.01,West,270,13.0,14.0,49,0.00,,---,0.01,VWS V14.01,2013-08-03 20:31:00,
2013-08-03 16:36:00,72.0,52.4,30.01,North,0,5.0,14.0,50,0.00,,---,0.01,VWS V14.01,2013-08-03 20:36:00,
2013-08-03 16:41:00,72.0,52.9,30.01,NNW,338,2.0,8.0,51,0.00,,---,0.01,VWS V14.01,2013-08-03 20:41:00,
2013-08-03 16:46:00,72.0,51.8,30.01,NW,315,6.0,14.0,49,0.00,,---,0.01,VWS V14.01,2013-08-03 20:46:00,
2013-08-03 16:51:00,72.0,51.8,30.01,NW,315,3.0,14.0,49,0.00,,---,0.01,VWS V14.01,2013-08-03 20:51:00,
2013-08-03 16:57:00,72.0,52.9,30.01,NW,315,10.0,14.0,51,0.00,,---,0.01,VWS V14.01,2013-08-03 20:57:00,
2013-08-03 17:01:00,72.0,52.9,30.01,WNW,292,3.0,11.0,51,0.00,,---,0.01,VWS V14.01,2013-08-03 21:01:00,
2013-08-03 17:07:00,73.0,53.8,30.01,WNW,292,3.0,13.0,51,0.00,,---,0.01,VWS V14.01,2013-08-03 21:07:00,
2013-08-03 17:12:00,73.0,53.3,30.01,WSW,248,3.0,13.0,50,0.00,,---,0.01,VWS V14.01,2013-08-03 21:12:00,
2013-08-03 17:17:00,73.0,55.4,30.01,NNW,338,4.0,13.0,54,0.00,,---,0.01,VWS V14.01,2013-08-03 21:17:00,
2013-08-03 17:22:00,73.0,52.7,30.01,WSW,248,5.0,13.0,49,0.00,,---,0.01,VWS V14.01,2013-08-03 21:22:00,
2013-08-03 17:27:00,72.0,51.8,30.01,NNW,338,4.0,13.0,49,0.00,,---,0.01,VWS V14.01,2013-08-03 21:27:00,
2013-08-03 17:32:00,73.0,53.3,30.01,West,270,4.0,13.0,50,0.00,,---,0.01,VWS V14.01,2013-08-03 21:32:00,
2013-08-03 17:38:00,72.0,52.9,30.01,NW,315,5.0,15.0,51,0.00,,---,0.01,VWS V14.01,2013-08-03 21:38:00,
2013-08-03 17:43:00,72.0,52.9,30.01,West,270,2.0,9.0,51,0.00,,---,0.01,VWS V14.01,2013-08-03 21:43:00,
2013-08-03 17:48:00,72.0,53.4,30.01,West,270,3.0,10.0,52,0.00,,---,0.01,VWS V14.01,2013-08-03 21:48:00,
2013-08-03 17:53:00,73.0,53.8,30.01,NNW,338,9.0,13.0,51,0.00,,---,0.01,VWS V14.01,2013-08-03 21:53:00,
2013-08-03 17:58:00,72.0,53.4,30.01,NNW,338,4.0,13.0,52,0.00,,---,0.01,VWS V14.01,2013-08-03 21:58:00,
2013-08-03 18:03:00,72.0,53.4,30.01,NW,315,6.0,14.0,52,0.00,,---,0.01,VWS V14.01,2013-08-03 22:03:00,
2013-08-03 18:08:00,72.0,52.9,30.01,NNW,338,3.0,14.0,51,0.00,,---,0.01,VWS V14.01,2013-08-03 22:08:00,
2013-08-03 18:13:00,72.0,54.5,30.01,NW,315,5.0,14.0,54,0.00,,---,0.01,VWS V14.01,2013-08-03 22:13:00,
2013-08-03 18:18:00,72.0,53.4,30.01,NNW,338,6.0,14.0,52,0.00,,---,0.01,VWS V14.01,2013-08-03 22:18:00,
2013-08-03 18:23:00,71.0,52.0,30.02,WNW,292,3.0,13.0,51,0.00,,---,0.01,VWS V14.01,2013-08-03 22:23:00,
2013-08-03 18:28:00,71.0,52.5,30.02,NW,315,8.0,14.0,52,0.00,,---,0.01,VWS V14.01,2013-08-03 22:28:00,
2013-08-03 18:33:00,71.0,52.5,30.01,WNW,292,4.0,14.0,52,0.00,,---,0.01,VWS V14.01,2013-08-03 22:33:00,
2013-08-03 18:38:00,70.0,52.1,30.01,NNW,338,3.0,14.0,53,0.00,,---,0.01,VWS V14.01,2013-08-03 22:38:00,
2013-08-03 18:44:00,70.0,53.1,30.01,West,270,10.0,10.0,55,0.00,,---,0.01,VWS V14.01,2013-08-03 22:44:00,
2013-08-03 18:49:00,70.0,54.1,30.01,WNW,292,6.0,10.0,57,0.00,,---,0.01,VWS V14.01,2013-08-03 22:49:00,
2013-08-03 18:54:00,70.0,54.1,30.03,West,270,6.0,10.0,57,0.00,,---,0.01,VWS V14.01,2013-08-03 22:54:00,
2013-08-03 18:59:00,69.0,52.7,30.03,WNW,292,11.0,16.0,56,0.00,,---,0.01,VWS V14.01,2013-08-03 22:59:00,
2013-08-03 19:04:00,69.0,54.1,30.04,NNW,338,5.0,12.0,59,0.00,,---,0.01,VWS V14.01,2013-08-03 23:04:00,
2013-08-03 19:09:00,68.0,53.6,30.04,NW,315,6.0,12.0,60,0.00,,---,0.01,VWS V14.01,2013-08-03 23:09:00,
2013-08-03 19:14:00,68.0,53.6,30.04,NNW,338,5.0,12.0,60,0.00,,---,0.01,VWS V14.01,2013-08-03 23:14:00,
2013-08-03 19:19:00,68.0,53.6,30.04,NW,315,2.0,14.0,60,0.00,,---,0.01,VWS V14.01,2013-08-03 23:19:00,
2013-08-03 19:25:00,68.0,54.5,30.04,West,270,10.0,12.0,62,0.00,,---,0.01,VWS V14.01,2013-08-03 23:25:00,
2013-08-03 19:30:00,68.0,53.6,30.02,WNW,292,5.0,16.0,60,0.00,,---,0.01,VWS V14.01,2013-08-03 23:30:00,
2013-08-03 19:35:00,68.0,54.5,30.02,NW,315,5.0,16.0,62,0.00,,---,0.01,VWS V14.01,2013-08-03 23:35:00,
2013-08-03 19:40:00,68.0,54.5,30.02,NNW,338,2.0,16.0,62,0.00,,---,0.01,VWS V14.01,2013-08-03 23:40:00,
2013-08-03 19:45:00,68.0,54.5,30.03,WNW,292,7.0,14.0,62,0.00,,---,0.01,VWS V14.01,2013-08-03 23:45:00,
2013-08-03 19:50:00,68.0,55.0,30.03,WNW,292,9.0,18.0,63,0.00,,---,0.01,VWS V14.01,2013-08-03 23:50:00,
2013-08-03 19:55:00,67.0,54.4,30.03,NW,315,3.0,18.0,64,0.00,,---,0.01,VWS V14.01,2013-08-03 23:55:00,
2013-08-03 20:00:00,67.0,54.9,30.03,WNW,292,8.0,18.0,65,0.00,,---,0.01,VWS V14.01,2013-08-04 00:00:00,
2013-08-03 20:05:00,67.0,54.4,30.03,NW,315,3.0,13.0,64,0.00,,---,0.01,VWS V14.01,2013-08-04 00:05:00,
2013-08-03 20:11:00,67.0,55.3,30.03,West,270,6.0,13.0,66,0.00,,---,0.01,VWS V14.01,2013-08-04 00:11:00,
2013-08-03 20:16:00,66.0,54.7,30.03,North,0,4.0,13.0,67,0.00,,---,0.01,VWS V14.01,2013-08-04 00:16:00,
2013-08-03 20:21:00,66.0,54.7,30.02,WNW,292,7.0,8.0,67,0.00,,---,0.01,VWS V14.01,2013-08-04 00:21:00,
2013-08-03 20:26:00,66.0,55.2,30.02,West,270,3.0,8.0,68,0.00,,---,0.01,VWS V14.01,2013-08-04 00:26:00,
2013-08-03 20:31:00,66.0,55.5,30.02,WNW,292,8.0,8.0,69,0.00,,---,0.01,VWS V14.01,2013-08-04 00:31:00,
2013-08-03 20:36:00,66.0,56.0,30.02,WNW,292,7.0,8.0,70,0.00,,---,0.01,VWS V14.01,2013-08-04 00:36:00,
2013-08-03 20:41:00,65.0,55.0,30.02,NW,315,4.0,6.0,70,0.00,,---,0.01,VWS V14.01,2013-08-04 00:41:00,
2013-08-03 20:46:00,65.0,55.4,30.02,West,270,3.0,7.0,71,0.00,,---,0.01,VWS V14.01,2013-08-04 00:46:00,
2013-08-03 20:52:00,65.0,55.4,30.02,West,270,4.0,7.0,71,0.00,,---,0.01,VWS V14.01,2013-08-04 00:52:00,
2013-08-03 20:57:00,65.0,55.4,30.02,West,270,5.0,8.0,71,0.00,,---,0.01,VWS V14.01,2013-08-04 00:57:00,
2013-08-03 21:02:00,65.0,55.8,30.02,WNW,292,6.0,8.0,72,0.00,,---,0.01,VWS V14.01,2013-08-04 01:02:00,
2013-08-03 21:07:00,65.0,55.8,30.02,WSW,248,5.0,8.0,72,0.00,,---,0.01,VWS V14.01,2013-08-04 01:07:00,
2013-08-03 21:12:00,64.0,54.8,30.03,West,270,5.0,8.0,72,0.00,,---,0.01,VWS V14.01,2013-08-04 01:12:00,
2013-08-03 21:17:00,64.0,55.2,30.03,West,270,6.0,8.0,73,0.00,,---,0.01,VWS V14.01,2013-08-04 01:17:00,
2013-08-03 21:22:00,64.0,55.2,30.03,WNW,292,6.0,8.0,73,0.00,,---,0.01,VWS V14.01,2013-08-04 01:22:00,
2013-08-03 21:27:00,64.0,55.6,30.03,WNW,292,7.0,8.0,74,0.00,,---,0.01,VWS V14.01,2013-08-04 01:27:00,
2013-08-03 21:32:00,64.0,55.6,30.03,WNW,292,6.0,9.0,74,0.00,,---,0.01,VWS V14.01,2013-08-04 01:32:00,
2013-08-03 21:37:00,64.0,55.6,30.03,WNW,292,5.0,9.0,74,0.00,,---,0.01,VWS V14.01,2013-08-04 01:37:00,
2013-08-03 21:42:00,64.0,55.9,30.03,WNW,292,5.0,6.0,75,0.00,,---,0.01,VWS V14.01,2013-08-04 01:42:00,
2013-08-03 21:47:00,64.0,55.9,30.03,West,270,6.0,9.0,75,0.00,,---,0.01,VWS V14.01,2013-08-04 01:47:00,
2013-08-03 21:52:00,64.0,55.9,30.03,WNW,292,5.0,9.0,75,0.00,,---,0.01,VWS V14.01,2013-08-04 01:52:00,
2013-08-03 21:57:00,64.0,56.3,30.03,WNW,292,2.0,9.0,76,0.00,,---,0.01,VWS V14.01,2013-08-04 01:57:00,
2013-08-03 22:03:00,63.0,55.0,30.04,West,270,3.0,5.0,75,0.00,,---,0.01,VWS V14.01,2013-08-04 02:03:00,
2013-08-03 22:08:00,63.0,55.0,30.04,WNW,292,1.0,5.0,75,0.00,,---,0.01,VWS V14.01,2013-08-04 02:08:00,
2013-08-03 22:13:00,63.0,55.3,30.03,NW,315,3.0,7.0,76,0.00,,---,0.01,VWS V14.01,2013-08-04 02:13:00,
2013-08-03 22:18:00,63.0,55.7,30.03,WNW,292,3.0,7.0,77,0.00,,---,0.01,VWS V14.01,2013-08-04 02:18:00,
2013-08-03 22:23:00,62.0,54.4,30.03,West,270,3.0,5.0,76,0.00,,---,0.01,VWS V14.01,2013-08-04 02:23:00,
2013-08-03 22:28:00,62.0,54.4,30.03,WSW,248,2.0,5.0,76,0.00,,---,0.01,VWS V14.01,2013-08-04 02:28:00,
2013-08-03 22:33:00,62.0,54.4,30.03,West,270,3.0,6.0,76,0.00,,---,0.01,VWS V14.01,2013-08-04 02:33:00,
2013-08-03 22:38:00,62.0,54.7,30.03,WSW,248,2.0,6.0,77,0.00,,---,0.01,VWS V14.01,2013-08-04 02:38:00,
2013-08-03 22:43:00,62.0,54.7,30.03,WNW,292,1.0,3.0,77,0.00,,---,0.01,VWS V14.01,2013-08-04 02:43:00,
2013-08-03 22:48:00,61.0,54.1,30.04,WSW,248,2.0,4.0,78,0.00,,---,0.01,VWS V14.01,2013-08-04 02:48:00,
2013-08-03 22:53:00,61.0,54.1,30.03,SW,225,1.0,4.0,78,0.00,,---,0.01,VWS V14.01,2013-08-04 02:53:00,
2013-08-03 22:59:00,61.0,54.5,30.04,SW,225,3.0,5.0,79,0.00,,---,0.01,VWS V14.01,2013-08-04 02:59:00,
2013-08-03 23:04:00,61.0,54.5,30.04,WSW,248,3.0,5.0,79,0.00,,---,0.01,VWS V14.01,2013-08-04 03:04:00,
2013-08-03 23:09:00,61.0,54.5,30.04,SW,225,2.0,5.0,79,0.00,,---,0.01,VWS V14.01,2013-08-04 03:09:00,
2013-08-03 23:14:00,60.0,53.5,30.04,SW,225,3.0,5.0,79,0.00,,---,0.01,VWS V14.01,2013-08-04 03:14:00,
2013-08-03 23:19:00,60.0,53.8,30.04,WSW,248,3.0,5.0,80,0.00,,---,0.01,VWS V14.01,2013-08-04 03:19:00,
2013-08-03 23:24:00,60.0,53.5,30.04,WSW,248,5.0,5.0,79,0.00,,---,0.01,VWS V14.01,2013-08-04 03:24:00,
2013-08-03 23:29:00,60.0,53.5,30.04,SW,225,3.0,6.0,79,0.00,,---,0.01,VWS V14.01,2013-08-04 03:29:00,
2013-08-03 23:34:00,60.0,53.8,30.04,WSW,248,1.0,6.0,80,0.00,,---,0.01,VWS V14.01,2013-08-04 03:34:00,
2013-08-03 23:39:00,60.0,53.8,30.04,SW,225,1.0,6.0,80,0.00,,---,0.01,VWS V14.01,2013-08-04 03:39:00,
2013-08-03 23:44:00,59.0,52.8,30.04,WSW,248,2.0,3.0,80,0.00,,---,0.01,VWS V14.01,2013-08-04 03:44:00,
2013-08-03 23:49:00,59.0,52.8,30.04,SW,225,1.0,3.0,80,0.00,,---,0.01,VWS V14.01,2013-08-04 03:49:00,
2013-08-03 23:55:00,59.0,52.5,30.04,SSW,202,2.0,3.0,79,0.00,,---,0.01,VWS V14.01,2013-08-04 03:55:00,
2013-08-03 23:59:00,59.0,52.5,30.04,SSW,202,1.0,3.0,79,0.00,,---,0.01,VWS V14.01,2013-08-04 03:59:00,